Flag for Canada Weather past 2 weeks in Corner Brook, Newfoundland and Labrador, Canada

Now
70 °F

Scattered clouds.


Feels Like: 70 °F
Forecast: 52 / 66 °F
Wind: 10 mph from Southwest

Location: Deer Lake

Current Time: Jul 4, 2015 at 4:46:12 PM

Latest Report: Jul 4, 2015 at 3:30 PM


Visibility: 15 mi

Pressure: 29.86 "Hg

Humidity: 64%

Dew point: 57 °F

Location of Corner BrookLocation

Historic Weather in Corner Brook — Graph

°F

Corner Brook temperature yesterday

Maximum temperature yesterday: 73 °F (at 1:30 PM)
Minimum temperature yesterday: 55 °F (at 11:30 PM)
Average temperature yesterday: 67 °F

Past Weeks' High & Low Weather Summary

 TemperatureHumidityPressure
High77 °F (Jun 28, 2:30 PM)100% (Jun 24, 5:30 AM)30.14 "Hg (Jun 24, 5:30 AM)
Low41 °F (Jun 24, 5:30 AM)31% (Jun 21, 4:30 PM)29.68 "Hg (Jul 3, 7:30 PM)
Average57 °F72%29.93 "Hg
* Reported Jun 19 3:30 PM — Jul 4 3:30 PM, Corner Brook, Weather by CustomWeather, © 2015

Note: Actual official high and low records may vary slightly from our data, if they occured in-between our weather recording intervals... More about our weather records

Advertising

Corner Brook weather history for previous 24 hours

 ConditionsComfort  
Time TempWeatherWind HumidityBarometerVisibility
3:30 PM
Sat, Jul 4
70 °FScattered clouds.10 mph64%29.86 "Hg15 mi
2:30 PM68 °FScattered clouds.12 mph64%29.86 "Hg15 mi
1:30 PM66 °FPartly sunny.15 mph68%29.86 "Hg15 mi
12:30 PM66 °FPartly sunny.13 mph68%29.86 "Hg15 mi
11:30 AM64 °FScattered showers. Partly sunny.13 mph78%29.84 "Hg15 mi
10:30 AM59 °FOvercast.13 mph82%29.83 "Hg15 mi
9:30 AM59 °FOvercast.8 mph82%29.83 "Hg15 mi
8:30 AM57 °FOvercast.9 mph88%29.81 "Hg12 mi
7:30 AM55 °FOvercast.8 mph94%29.79 "Hg15 mi
6:30 AM55 °FPartly sunny.2 mph88%29.78 "Hg15 mi
5:30 AM55 °FOvercast.7 mph88%29.77 "Hg12 mi
4:30 AM55 °FPassing clouds.6 mph88%29.75 "Hg15 mi
3:30 AM54 °FPassing clouds.No wind88%29.74 "Hg15 mi
2:30 AM55 °FPassing clouds.No wind82%29.73 "Hg15 mi
1:30 AM55 °FPassing clouds.5 mph82%29.73 "Hg15 mi
12:30 AM55 °FPassing clouds.5 mph82%29.73 "Hg15 mi
11:30 PM
Fri, Jul 3
55 °FPassing clouds.3 mph82%29.74 "Hg15 mi
10:30 PM59 °FPassing clouds.6 mph72%29.74 "Hg15 mi
9:30 PM61 °FScattered clouds.10 mph68%29.72 "Hg15 mi
8:30 PM66 °FBroken clouds.14 mph68%29.68 "Hg15 mi
7:30 PM72 °FBroken clouds.9 mph69%29.68 "Hg15 mi
6:30 PM73 °FBroken clouds.9 mph61%29.69 "Hg15 mi
5:30 PM73 °FMostly cloudy.6 mph57%29.71 "Hg15 mi
4:30 PM73 °FMore clouds than sun.5 mph61%29.71 "Hg15 mi
Weather by CustomWeather, © 2015

See weather overviewHow to use our weather pages